STARLINK-35495 (66243 NORAD) Tracking and Keplerian Element Data

This shows tracking and keplerian element data for the satellite.

Feedback or suggestion? Click here.




ElementValue
Catalog66243
NameSTARLINK-35495
Epoch Orbit905
Epoch Day354.09847071
Epoch Year2025
RAAN294.8059
Inclination53.1613
Eccentricity0.0026095
Argument of Perigee309.1957
Mean Anonmoly50.6732
Mean Motion15.43386693
Decay Rate0.04239905
L11 66243U 25245K 25354.09847071 .04239905 00000+0 79928-1 0 9991
L22 66243 53.1613 294.8059 0026095 309.1957 50.6732 15.43386693 9050



Live tracking and technical data element details for STARLINK-35495 (NORAD 66243). STARLINK-35495 can be tracked NOW for your location showing map with azimuth and elevation plus other details from your city location.







IsCatalogInMostPopularTable: catalog: 66243, numindb: 7
Update: records affected: 1



GetName: 66243 STARLINK-35495

Hit Count: updated at: Tue, 21 Apr 2026 19:14:31 GMT